Regional Weather Roundup
Issued by NWS

Home | Current Version | Previous Version | Graphics & Text | Print | Product List | Glossary Off
Versions: 1 2 3 4 5 6 7 8 9 10 11 12 13 14 15 16 17 18 19 20 21 22 23 24 25 26 27 28 29 30 31 32 33 34 35 36 37 38 39 40 41 42 43 44 45 46 47 48 49 50

000
ASUS45 KABQ 301410
RWRNM
WEATHER ROUNDUP FOR NEW MEXICO
NATIONAL WEATHER SERVICE ALBUQUERQUE NM
800 AM MDT SAT AUG 30 2014

NOTE: "FAIR" MEANS FEW OR NO CLOUDS BELOW 12,000 FEET AGL WITH NO
       SIGNIFICANT WEATHER OR OBSTRUCTIONS TO VISION.

      THIS PRODUCT IS RELEASED AS TWO VERSIONS.  ONE VERSION NEAR
      THE TOP OF THE HOUR CONTAINING PRELIMINARY DATA FROM ALBUQUERQUE
      AND OTHER STATIONS.  A FINAL VERSION WITH ADDITIONAL DATA IS
      ISSUED ABOUT 10 MINUTES AFTER THE HOUR.

NMZ501-503-504-510>518-301500-
NORTHWEST PLATEAU/NORTHCENTRAL MOUNTAINS

CITY           SKY/WX    TMP DP  RH WIND       PRES   REMARKS
FARMINGTON     SUNNY     58  42  55 E8        30.18R
LOS ALAMOS     SUNNY     63  41  44 CALM      30.31S
SANTA FE       SUNNY     60  42  51 N7        30.25R
ANGEL FIRE     FAIR      43  39  86 CALM      30.40S

$$
NMZ402-403-502-505>509-301500-
WESTCENTRAL MOUNTAINS/SOUTHWEST MOUNTAINS

CITY           SKY/WX    TMP DP  RH WIND       PRES   REMARKS
GALLUP         MOSUNNY   49  28  44 CALM      30.26R
SILVER CITY    SUNNY     70  43  37 N8        30.19S

$$
NMZ407-409-411-412-301500-
SOUTHERN DESERTS

CITY           SKY/WX    TMP DP  RH WIND       PRES   REMARKS
LORDSBURG      FAIR      72  46  40 CALM      30.10R
DEMING         MOSUNNY   70  45  40 CALM      30.10R
LAS CRUCES     PTSUNNY   75  47  37 S5        30.12S
HOLLOMAN AFB   PTSUNNY   69  49  48 NW7       30.10R
ALAMOGORDO     MOSUNNY   75  48  38 CALM      30.11S
T OR C         SUNNY     70  50  49 NW3       30.14R

$$
NMZ519>523-301500-
CENTRAL VALLEYS/CENTRAL HIGHLANDS

CITY           SKY/WX    TMP DP  RH WIND       PRES   REMARKS
ALBUQUERQUE    PTSUNNY   64  43  46 N6        30.19R
DOUBLE EAGLE   MOSUNNY   61  45  55 CALM      30.22R
MORIARTY ARPT  FAIR      55  49  80 CALM      30.26S
CLINES CORNERS SUNNY     62  42  47 E8        30.29S
BELEN          FAIR      64  43  46 CALM      30.18R
SOCORRO        FAIR      65  48  53 N5        30.16S

$$
NMZ524>526-539-540-301500-
SOUTHCENTRAL MOUNTAINS

CITY           SKY/WX    TMP DP  RH WIND       PRES   REMARKS
RUIDOSO        MOSUNNY   64  45  48 CALM      30.32S

$$
NMZ527>531-301500-
NORTHEAST HIGHLANDS/NORTHEAST PLAINS

CITY           SKY/WX    TMP DP  RH WIND       PRES   REMARKS
LAS VEGAS      SUNNY     55  42  61 NE3       30.29F
RATON          SUNNY     58  46  64 NE3       30.24S
CLAYTON        MOSUNNY   64  53  67 W6        30.16R

$$
NMZ532>537-301500-
EASTCENTRAL PLAINS

CITY           SKY/WX    TMP DP  RH WIND       PRES   REMARKS
TUCUMCARI      SUNNY     71  48  43 CALM      30.12S
CANNON AFB     SUNNY     69  65  87 NW2       30.14S
CLOVIS AIRPORT   N/A     70  61  73 W8        30.16S

$$
NMZ028-029-538-301500-
SOUTHEAST PLAINS

CITY           SKY/WX    TMP DP  RH WIND       PRES   REMARKS
ROSWELL        SUNNY     73  56  54 CALM      30.09R
CARLSBAD       SUNNY     75  62  64 CALM      30.07R
HOBBS          SUNNY     72  63  73 VRB3      30.10S


$$


USA.gov is the U.S. government's official web portal to all federal, state and local government web resources and services.